Weather in Novopokrovka

Russia / Tomsk District     56°19′20″N   83°51′48″E
temp.,
°C
wind,
m/s
gust,
m/s
humid.,
%
clouds,
%
prec.,
mm/h
press.,
hPa
HPBL,
m
16 may, sun
sun1601:00+14n3689100 2.4 1015177
04:00+11ne249632 0.0 101589
07:00+12ese228984 0.0 1014132
10:00+18ssw347297 0.0 1012688
13:00+22w6953100 0.1 10101644
16:00+16nnw51088100 1.6 1010522
19:00+13nne578571 2.0 1012457
22:00+10ne578999 0.0 1014377
17 may, mon
mon1701:00+9ne3488100 0.0 1015345
04:00+9nne2388100 0.0 1016228
07:00+8nne3386100 0.0 1017267
10:00+11nne227155 0.0 1017585
13:00+15nnw235672 0.0 10171255
16:00+18nnw244743 0.0 10151582
19:00+17ene2354100 0.0 101459
22:00+15sse3861100 0.0 1012189
18 may, tue
tue1801:00+14wsw61288100 0.1 1010330
04:00+14ssw61492100 0.7 1008519
07:00+14wsw41192100 1.3 1006448
10:00+18wnw5671100 0.0 1005955
13:00+19nw576395 0.1 10041230
16:00+19nw686948 1.2 10041218
19:00+14n578872 2.7 1006625
22:00+11n5791100 0.3 1008705
19 may, wed
wed1901:00+9nne5790100 0.3 1008565
04:00+8nne4791100 0.0 1009469
07:00+8nne4689100 0.0 1009403
10:00+8nne5682100 0.0 1010488
13:00+10ne564999 0.0 1010999
16:00+12n7741100 0.0 10091908
19:00+11nne474197 0.0 10102140
22:00+7nne365317 0.0 101181
20 may, thu
thu2001:00+5nne8127484 0.0 1012612
04:00+3nne51292100 1.6 1013867
07:00+2n7137510 1.8 1015810
10:00+5n9115588 0.0 10171573
13:00+8n8935100 0.0 10192632
16:00+9n893681 0.0 10212513
19:00+9n58384 0.0 10222273
22:00+5nnw45516 0.0 102568